Location: Newark
(45.9456°N, 15.4064°E)
Time: 12:48:47
(UTC+00:00)

Vanguard 3 - Pass Details

Date: 26 January 2020
Orbit: 508 x 3263 km, 33.3° (Epoch: 24 February)

Event Time Altitude Azimuth Distance (km) Brightness Sun altitude
Rises 14:37:42 0° 212° (SSW) 6,605 13.5 10.2°
Reaches altitude 10° 14:42:28 10° 204° (SSW) 5,852 12.9 9.6°
Maximum altitude 14:58:22 34° 148° (SSE) 4,466 11.1 7.4°
Drops below altitude 10° 15:13:46 10° 93° (E) 5,714 11.0 5.2°
Sets 15:18:16 0° 85° (E) 6,443 11.2 4.6°
